Regional Weather Roundup
Issued by NWS

Home | Current Version | Previous Version | Text Only | Print | Product List | Glossary On
Versions: 1 2 3 4 5 6 7 8 9 10 11 12 13 14 15 16 17 18 19 20 21 22 23 24 25 26 27 28 29 30 31 32 33 34 35 36 37 38 39 40 41 42 43 44 45 46 47 48 49 50
791
ASUS45 KREV 310110
RWRNV
NEVADA REGIONAL WEATHER ROUNDUP
NATIONAL WEATHER SERVICE RENO NV
600 PM PDT THU MAR 30 2017

NOTE: "FAIR" INDICATES FEW OR NO CLOUDS BELOW 12,000 FEET WITH NO
SIGNIFICANT WEATHER AND/OR OBSTRUCTIONS TO VISIBILITY.

NVZ001-003-004-310200-
WESTERN NEVADA

CITY           SKY/WX    TMP DP  RH WIND       PRES   REMARKS
RENO           PTSUNNY   43  22  43 N22G33    29.98F
CARSON CITY    LGT RAIN  37  25  60 N21G31    29.99F
MINDEN         FAIR      39  27  60 N22G29    29.98R
FALLON         FLURRIES  38  28  67 N18G40    29.92R
LOVELOCK       LGT RAIN  39  28  64 N17G38    29.93S
HAWTHORNE      PTSUNNY   41  27  56 N33G46    29.93R
$$

NVZ002-CAZ072-073-310200-
NORTHERN AND CENTRAL SIERRA

CITY           SKY/WX    TMP DP  RH WIND       PRES   REMARKS
S. LAKE TAHOE  PTSUNNY   33  20  58 N7G16     29.95S
TRUCKEE        PTSUNNY   34  21  60 N13G29    29.98
SQUAW VLY 8000   N/A     23  19  86 N18         N/A
SUSANVILLE     SUNNY     45  23  42 NW14G20   30.02F
MAMMOTH LAKES  PTSUNNY   30  18  60 NW17G26   29.89S
BRIDGEPORT     LGT SNOW  28  22  78 NE9       29.89R VSB 3/4
$$

NVZ030-031-036-310200-
NORTHERN NEVADA

CITY           SKY/WX    TMP DP  RH WIND       PRES   REMARKS
ELKO           CLOUDY    36  23  59 E6G21     29.78S
WINNEMUCCA     CLOUDY    38  29  70 NW12G22   29.91R
WENDOVER       CLOUDY    39  29  67 NW24G40   29.61R
$$

NVZ035-037-310200-
CENTRAL NEVADA

CITY           SKY/WX    TMP DP  RH WIND       PRES   REMARKS
ELY            LGT SNOW  29  28  96 NW13      29.63S
EUREKA           N/A     30  25  81 N21G29    29.76S
$$

NVZ013-014-310200-
SOUTH CENTRAL NEVADA

CITY           SKY/WX    TMP DP  RH WIND       PRES   REMARKS
TONOPAH        LGT SNOW  36  25  64 NW32G49   29.74F
$$

NVZ017-020-022-310200-
SOUTHERN NEVADA

CITY           SKY/WX    TMP DP  RH WIND       PRES   REMARKS
LAS VEGAS      CLOUDY    61  21  21 NW23G31   29.56S
N. LAS VEGAS   CLOUDY    59  29  31 N16G25    29.55F
NELLIS AFB     MOSUNNY   59  30  33 W23G35    29.57R
HENDERSON      CLOUDY    57  32  38 S6        29.60R
MERCURY        PTSUNNY   52  19  27 NW28G41   29.66R
$$




USA.gov is the U.S. government's official web portal to all federal, state and local government web resources and services.